Other Surface Observations
Issued by NWS Tucson, AZ

Current Version | Previous Version | Text Only | Print | Product List | Glossary On
Versions: 1 2 3 4 5 6 7 8 9 10 11 12 13 14 15 16 17 18 19 20 21 22 23 24 25 26 27 28 29 30 31 32 33 34 35 36 37 38 39 40 41 42 43 44 45 46 47 48 49 50
403
SXUS55 KTWC 122215
OSOTWC

WEATHER ROUNDUP FOR SOUTHEAST ARIZONA
NATIONAL WEATHER SERVICE TUCSON AZ
315 PM MST FRI FEB 12 2016

AZZ504>506-514-122315-
LOCATION       SKY/WX    TMP DP  RH WIND       PRES   REMARKS
TUCSON         SUNNY     85  14   7 N5        30.10F
DAVIS-MONTHAN  SUNNY     83  10   6 NW2       30.09F
CHILDRENS PARK N/A      N/A N/A   9 S2                PIMA CO DEQ
ALVERNON/22ND  N/A       84 N/A N/A NW1               PIMA CO DEQ
CHERRY/GLENN   N/A       85 N/A N/A N/A               PIMA CO DEQ
TANGERINE      N/A       83 N/A N/A S3                PIMA CO DEQ
CONTL RANCH    N/A       84  24  11 SE2               PIMA CO DEQ
GRANT/1ST      N/A       84  22  10 NW1               PIMA CO DEQ
CRAYCROFT/22ND N/A       84  22  10 N/A               PIMA CO DEQ
GOLFLINKS/KOLB N/A       82  20  10 N2                PIMA CO DEQ
AJO/12TH       N/A       84  19   9 E1                PIMA CO DEQ
SAGUARO EAST   N/A       29 -24   8 E1                PIMA CO DEQ
FAIRGROUNDS    N/A       84 N/A N/A N/A               PIMA CO DEQ
SAGUARO        N/A       88  13   6 E3                *SABINO CYN
SAN CARLOS     N/A       73  28  19 E2                *SAN CARLOS
GREEN VALLEY   N/A       84  10   6 N2                PIMA CO DEQ
HORSE CAMP CYN N/A       77  20  12 E7G14             *ARAVAIPA CYN
RINCON MTNS    N/A       62   3   9 E3                *NR MANNING CAMP
$$

AZZ509>511-122315-
LOCATION       SKY/WX    TMP DP  RH WIND       PRES   REMARKS
SAFFORD        SUNNY     76  18  11 CALM      30.16F
STRAY HORSE    N/A       63   6  10 S5                *
TRAIL CABIN    N/A       67  11  11 NE7G10            *N OF GRANVILLE
BLACK HILLS    N/A       77  22  13 SW4G10            *N OF FT THOMAS
DRY LAKE       N/A       67  13  12 S7G13             *NATANES MTNS
NOON CREEK     N/A       72  17  12 E6G10             *PINALENO MTNS
COLUMBINE      N/A       54   6  14 S5G11             *PINALENO MTNS
GUTHRIE        N/A       66  12  12 SE5G12            *SW OF GUTHRIE
$$

AZZ502-503-513-122315-
LOCATION       SKY/WX    TMP DP  RH WIND       PRES   REMARKS
NOGALES        MOSUNNY   82   2   4 SW8       30.14F
SELLS          N/A       86  18   8 W7G10             *
SASABE         N/A       86   2   4 NE5G12            *ALTAR VLY
HOPKINS        N/A       73   8   8 S5G15             *SANTA RITA MTNS
CARR CYN       N/A       75   7   7 SE3G11            *W OF HEREFORD
$$

AZZ507-508-512-122315-
LOCATION       SKY/WX    TMP DP  RH WIND       PRES   REMARKS
SIERRA VISTA   SUNNY     77   4   6 SE10      30.21F
DOUGLAS        SUNNY     79   5   6 S9        30.19F
EMPIRE MTNS    N/A       79   6   6 E7G14             *LAS CIENEGAS NCA
MULESHOE RANCH N/A       78   9   7 S8G15             *PRESERVE
HEADQUARTERS   N/A       76  16  10 SE4G12            *CHIRICAHUA MTNS
$$

.............................NOTES.............................
THIS IS AN AUTOMATED COLLECTIVE WITH MINIMAL QUALITY CONTROL.
PIMA CO DEQ SITES HAVE NONSTANDARD WIND SENSOR HEIGHTS.
PIMA CO DEQ SITES DO NOT REPORT WIND GUSTS.
* INDICATES WIND SENSORS LOCATED AT 20 FEET INSTEAD OF 33 FEET.
..............................KEY..............................
SKY/WX - SKY CONDITION/WEATHER
TMP    - TEMPERATURE IN FAHRENHEIT
DP     - DEWPOINT IN FAHRENHEIT
RH     - RELATIVE HUMIDITY IN PERCENT
WIND   - DIRECTION AND SPEED IN MILES PER HOUR (MPH)
VRB    - VARIABLE WIND DIRECTION
PRES   - MEAN SEA LEVEL PRESSURE IN INCHES OF MERCURY
         F - FALLING PRESSURE   R - RISING PRESSURE
         S - STEADY PRESSURE
VSB    - VISIBILITY IN MILES
HX     - HEAT INDEX IN FAHRENHEIT
WCI    - WIND CHILL INDEX IN FAHRENHEIT
N/A    - NOT AVAILABLE
AFB    - AIR FORCE BASE
         DAVIS-MONTHAN IS DAVIS-MONTHAN AIR FORCE BASE
CYN    - CANYON
MTNS   - MOUNTAINS
NCA    - NATIONAL CONSERVATION AREA
NR     - NEAR
VLY    - VALLEY
CONTL  - CONTINENTAL
PIMA CO DEQ - PIMA COUNTY DEPT OF ENVIRONMENTAL QUALITY



USA.gov is the U.S. government's official web portal to all federal, state and local government web resources and services.